QPF
0.00 0.00 0.00 0.00 0.00 0.00 0.00 0.00 0.00 0.00 0.00 0.00 0.00 0.00 0.00 0.00 0.00 0.00 0.00 0.00 0.01 0.01 0.00 0.00 0.00 0.00 0.00 0.00 0.00 0.00 0.00 0.00 0.00 0.00 0.00 0.00 0.00 0.00 0.00 0.00 0.00 0.00 0.00 0.00 0.00 0.00 0.00 0.00 0.00
0.00 0.00 0.00 0.00 0.00 0.00 0.00 0.00 0.00 0.00 0.00 0.00 0.00 0.00 0.00 0.00 0.00 0.00 0.00 0.00 0.02 0.00 0.00 0.00 0.00 0.00 0.00 0.00 0.00 0.00 0.00 0.00 0.00 0.00 0.00 0.00 0.00 0.00 0.00 0.00 0.00 0.00 0.00 0.00 0.00 0.00 0.00 0.00 0.00
0.00 0.00 0.00 0.00 0.00 0.00 0.00 0.00 0.00 0.00 0.00 0.00 0.00 0.00 0.00 0.01 0.00 0.00 0.00 0.00 0.00 0.00 0.00 0.00 0.00 0.00 0.00 0.00 0.00 0.00 0.00 0.00 0.00 0.00 0.00 0.00 0.00 0.00 0.00 0.00 0.00 0.00 0.00 0.00 0.00 0.00 0.00 0.00 0.00
0.00 0.00 0.00 0.00 0.00 0.00 0.00 0.00 0.00 0.00 0.00 0.00 0.00 0.01 0.00 0.01 0.00 0.00 0.00 0.00 0.00 0.00 0.00 0.00 0.00 0.00 0.00 0.00 0.00 0.00 0.00 0.00 0.00 0.00 0.00 0.00 0.00 0.00 0.00 0.00 0.00 0.00 0.00 0.00 0.00 0.00 0.00 0.00 0.00
0.00 0.00 0.00 0.00 0.00 0.00 0.00 0.00 0.00 0.00 0.00 0.00 0.00 0.00 0.00 0.00 0.00 0.00 0.00 0.00 0.00 0.00 0.00 0.00 0.00 0.00 0.00 0.00 0.00 0.00 0.00 0.00 0.00 0.00 0.00 0.00 0.00 0.00 0.00 0.00 0.00 0.00 0.00 0.00 0.00 0.00 0.00 0.00 0.00
0.00 0.00 0.00 0.00 0.00 0.00 0.00 0.00 0.00 0.00 0.00 0.00 0.00 0.00 0.00 0.00 0.00 0.00 0.00 0.00 0.00 0.00 0.00 0.00 0.00 0.00 0.00 0.00 0.00 0.00 0.00 0.00 0.00 0.00 0.00 0.00 0.00 0.00 0.00 0.00 0.00 0.00 0.00 0.00 0.00 0.00 0.00 0.00 0.00
0.00 0.00 0.00 0.00 0.00 0.00 0.00 0.00 0.00 0.00 0.00 0.00 0.00 0.00 0.01 0.00 0.00 0.00 0.00 0.00 0.01 0.00 0.00 0.00 0.00 0.00 0.00 0.00 0.00 0.00 0.00 0.00 0.00 0.00 0.00 0.00 0.00 0.00 0.00 0.00 0.00 0.00 0.00 0.00 0.00 0.00 0.00 0.00 0.00
0.00 0.00 0.00 0.00 0.00 0.00 0.00 0.00 0.00 0.00 0.00 0.00 0.00 0.00 0.00 0.00 0.00 0.00 0.01 0.02 0.01 0.00 0.00 0.00 0.00 0.00 0.00 0.00 0.00 0.00 0.00 0.00 0.00 0.00 0.00 0.00 0.00 0.00 0.00 0.00 0.00 0.00 0.00 0.00 0.00 0.00 0.00 0.00 0.00
0.00 0.00 0.00 0.00 0.00 0.00 0.00 0.00 0.00 0.00 0.00 0.00 0.00 0.00 0.00 0.00 0.01 0.01 0.00 0.01 0.00 0.00 0.00 0.00 0.00 0.00 0.00 0.00 0.00 0.00 0.00 0.00 0.00 0.00 0.00 0.00 0.00 0.00 0.00 0.00 0.00 0.00 0.00 0.00 0.00 0.00 0.00 0.00 0.00
0.00 0.00 0.00 0.00 0.00 0.00 0.00 0.00 0.00 0.00 0.00 0.00 0.00 0.02 0.00 0.00 0.00 0.01 0.00 0.00 0.00 0.00 0.00 0.00 0.00 0.00 0.00 0.00 0.00 0.00 0.00 0.00 0.00 0.00 0.00 0.00 0.00 0.00 0.00 0.00 0.00 0.00 0.00 0.00 0.00 0.00 0.00 0.00 0.00
0.00 0.00 0.00 0.00 0.00 0.00 0.00 0.00 0.00 0.00 0.00 0.00 0.01 0.14 0.11 0.05 0.01 0.00 0.00 0.00 0.00 0.00 0.00 0.00 0.00 0.00 0.00 0.00 0.00 0.00 0.00 0.00 0.00 0.00 0.00 0.00 0.00 0.00 0.00 0.00 0.00 0.00 0.00 0.00 0.00 0.00 0.00 0.00 0.00
0.00 0.00 0.00 0.00 0.00 0.00 0.00 0.00 0.00 0.00 0.00 0.00 0.00 0.03 0.16 0.22 0.11 0.04 0.00 0.00 0.00 0.00 0.00 0.00 0.00 0.00 0.00 0.00 0.00 0.00 0.00 0.00 0.00 0.00 0.00 0.00 0.00 0.00 0.00 0.00 0.00 0.00 0.00 0.00 0.00 0.00 0.00 0.00 0.00
0.00 0.00 0.00 0.00 0.00 0.00 0.00 0.00 0.00 0.00 0.00 0.00 0.00 0.00 0.02 0.13 0.11 0.09 0.07 0.02 0.00 0.00 0.00 0.00 0.00 0.00 0.00 0.00 0.00 0.00 0.00 0.00 0.00 0.00 0.00 0.00 0.00 0.00 0.00 0.00 0.00 0.00 0.00 0.00 0.00 0.00 0.00 0.00 0.00
0.00 0.00 0.00 0.00 0.00 0.00 0.00 0.00 0.00 0.00 0.00 0.00 0.00 0.00 0.00 0.06 0.18 0.17 0.17 0.09 0.00 0.00 0.00 0.00 0.00 0.00 0.00 0.00 0.00 0.00 0.00 0.00 0.00 0.00 0.00 0.00 0.00 0.00 0.00 0.00 0.00 0.00 0.00 0.00 0.00 0.00 0.00 0.00 0.00
0.00 0.00 0.00 0.00 0.00 0.00 0.00 0.00 0.00 0.00 0.00 0.00 0.00 0.00 0.00 0.04 0.19 0.24 0.20 0.12 0.04 0.00 0.00 0.00 0.00 0.00 0.00 0.00 0.00 0.00 0.00 0.00 0.00 0.00 0.00 0.00 0.00 0.00 0.00 0.00 0.00 0.00 0.00 0.00 0.00 0.00 0.00 0.00 0.00
0.00 0.00 0.00 0.00 0.00 0.00 0.00 0.00 0.00 0.00 0.00 0.00 0.00 0.00 0.00 0.00 0.14 0.19 0.20 0.21 0.16 0.02 0.00 0.00 0.00 0.00 0.00 0.00 0.00 0.00 0.00 0.00 0.00 0.00 0.00 0.00 0.00 0.00 0.00 0.00 0.00 0.00 0.00 0.00 0.00 0.00 0.00 0.00 0.00
0.00 0.00 0.00 0.00 0.00 0.00 0.00 0.00 0.00 0.00 0.00 0.00 0.00 0.00 0.00 0.00 0.08 0.19 0.19 0.18 0.16 0.07 0.03 0.00 0.00 0.00 0.00 0.00 0.00 0.00 0.00 0.00 0.00 0.00 0.00 0.00 0.00 0.00 0.00 0.00 0.00 0.00 0.00 0.00 0.00 0.00 0.00 0.00 0.00
0.00 0.00 0.00 0.00 0.00 0.00 0.00 0.00 0.00 0.00 0.00 0.00 0.00 0.00 0.00 0.00 0.02 0.14 0.21 0.20 0.14 0.09 0.05 0.01 0.00 0.00 0.00 0.00 0.00 0.00 0.00 0.00 0.00 0.00 0.00 0.00 0.00 0.00 0.00 0.00 0.00 0.00 0.00 0.00 0.00 0.00 0.00 0.00 0.00
0.00 0.00 0.00 0.00 0.00 0.00 0.00 0.00 0.00 0.00 0.00 0.00 0.00 0.00 0.00 0.00 0.00 0.04 0.21 0.16 0.10 0.08 0.06 0.04 0.01 0.00 0.00 0.00 0.00 0.00 0.00 0.00 0.00 0.00 0.00 0.00 0.00 0.00 0.00 0.00 0.00 0.00 0.00 0.00 0.00 0.00 0.00 0.00 0.00
0.00 0.00 0.00 0.00 0.00 0.00 0.00 0.00 0.00 0.00 0.00 0.00 0.00 0.00 0.00 0.00 0.00 0.00 0.11 0.21 0.09 0.09 0.05 0.04 0.05 0.01 0.00 0.00 0.00 0.00 0.00 0.00 0.00 0.00 0.00 0.00 0.00 0.00 0.00 0.00 0.00 0.00 0.00 0.00 0.00 0.00 0.00 0.00 0.00
0.00 0.00 0.00 0.00 0.00 0.00 0.00 0.00 0.00 0.00 0.00 0.00 0.00 0.00 0.00 0.00 0.00 0.00 0.03 0.12 0.15 0.11 0.05 0.06 0.05 0.01 0.00 0.00 0.00 0.00 0.00 0.00 0.00 0.00 0.00 0.00 0.00 0.00 0.00 0.00 0.00 0.00 0.00 0.00 0.00 0.00 0.00 0.00 0.00
0.00 0.00 0.00 0.00 0.00 0.00 0.00 0.00 0.00 0.00 0.00 0.00 0.00 0.00 0.00 0.00 0.00 0.00 0.01 0.04 0.06 0.07 0.04 0.04 0.09 0.09 0.05 0.00 0.00 0.00 0.00 0.00 0.00 0.00 0.00 0.00 0.00 0.00 0.00 0.00 0.00 0.00 0.00 0.00 0.00 0.00 0.00 0.00 0.00
0.00 0.00 0.00 0.00 0.00 0.00 0.00 0.00 0.00 0.00 0.00 0.00 0.00 0.00 0.00 0.00 0.00 0.00 0.00 0.00 0.01 0.02 0.02 0.01 0.06 0.12 0.17 0.09 0.02 0.00 0.00 0.00 0.00 0.00 0.00 0.00 0.00 0.00 0.00 0.00 0.00 0.00 0.00 0.00 0.00 0.00 0.00 0.00 0.00
0.00 0.00 0.00 0.00 0.00 0.00 0.00 0.00 0.00 0.00 0.00 0.00 0.00 0.00 0.00 0.00 0.00 0.00 0.00 0.00 0.01 0.01 0.02 0.01 0.02 0.06 0.19 0.19 0.08 0.00 0.00 0.00 0.00 0.00 0.00 0.00 0.00 0.00 0.00 0.00 0.00 0.00 0.00 0.00 0.00 0.00 0.00 0.00 0.00
0.00 0.01 0.01 0.00 0.00 0.00 0.00 0.00 0.00 0.00 0.00 0.00 0.00 0.00 0.00 0.00 0.00 0.00 0.00 0.00 0.00 0.00 0.00 0.00 0.01 0.05 0.10 0.16 0.12 0.04 0.00 0.00 0.00 0.00 0.00 0.00 0.00 0.00 0.00 0.00 0.00 0.00 0.00 0.00 0.00 0.00 0.00 0.00 0.00
0.01 0.01 0.01 0.00 0.00 0.00 0.00 0.00 0.00 0.00 0.00 0.00 0.00 0.00 0.00 0.00 0.00 0.00 0.00 0.00 0.00 0.00 0.00 0.00 0.00 0.02 0.06 0.10 0.08 0.05 0.02 0.00 0.00 0.00 0.00 0.00 0.00 0.00 0.00 0.00 0.00 0.00 0.00 0.00 0.00 0.00 0.00 0.00 0.00
0.00 0.01 0.01 0.01 0.00 0.00 0.00 0.00 0.00 0.00 0.00 0.00 0.00 0.00 0.00 0.00 0.00 0.00 0.00 0.00 0.00 0.00 0.00 0.00 0.05 0.01 0.04 0.08 0.07 0.03 0.00 0.00 0.00 0.00 0.00 0.00 0.00 0.00 0.00 0.00 0.00 0.00 0.00 0.00 0.00 0.00 0.00 0.00 0.00
0.00 0.02 0.02 0.01 0.01 0.00 0.00 0.00 0.00 0.00 0.00 0.00 0.00 0.00 0.00 0.00 0.00 0.00 0.01 0.00 0.00 0.00 0.01 0.05 0.13 0.04 0.02 0.05 0.05 0.03 0.01 0.00 0.00 0.00 0.00 0.00 0.00 0.00 0.00 0.00 0.00 0.00 0.00 0.00 0.00 0.00 0.00 0.00 0.00
0.00 0.01 0.02 0.01 0.00 0.00 0.00 0.00 0.00 0.00 0.00 0.00 0.00 0.00 0.00 0.00 0.00 0.02 0.01 0.00 0.01 0.01 0.03 0.15 0.23 0.12 0.02 0.02 0.02 0.01 0.01 0.01 0.01 0.01 0.00 0.00 0.00 0.00 0.00 0.00 0.00 0.00 0.00 0.00 0.00 0.00 0.00 0.00 0.00
0.00 0.00 0.00 0.00 0.00 0.00 0.00 0.00 0.00 0.00 0.01 0.02 0.00 0.00 0.00 0.00 0.00 0.00 0.00 0.01 0.04 0.08 0.13 0.17 0.24 0.14 0.01 0.01 0.01 0.04 0.04 0.02 0.01 0.01 0.00 0.00 0.00 0.00 0.00 0.00 0.00 0.00 0.00 0.00 0.00 0.00 0.00 0.00 0.00
MSLP
1010.41 1010.12 1010.16 1010.56 1012.13 1012.66 1011.50 1009.69 1007.83 1006.58 1005.64 1005.10 1005.09 1005.59 1005.41 1005.87 1006.64 1006.13 1003.31 1003.55 1004.22 1004.56 1006.70 1007.61 1008.69 1009.38 1009.73 1009.56 1009.73 1009.82 1009.83 1010.14 1010.33 1010.58 1010.78 1010.97 1011.22 1011.36 1011.56 1011.71 1011.80 1011.76 1011.78 1011.79 1011.75 1011.75 1011.83 1011.83 1011.81
1010.44 1010.19 1010.49 1011.41 1012.59 1012.93 1011.09 1009.17 1007.31 1006.73 1005.61 1004.83 1004.46 1004.59 1005.01 1005.10 1005.27 1005.03 1004.19 1003.56 1003.63 1003.67 1005.81 1007.42 1008.41 1008.74 1009.44 1009.55 1009.59 1010.05 1010.17 1010.17 1010.36 1010.66 1010.79 1010.97 1011.32 1011.53 1011.68 1011.83 1011.92 1011.89 1011.91 1011.96 1011.92 1011.89 1011.94 1011.90 1011.90
1010.49 1010.58 1011.27 1012.17 1012.64 1011.71 1010.45 1008.74 1007.77 1006.57 1005.61 1004.92 1004.41 1003.82 1003.94 1003.90 1004.33 1004.49 1003.55 1002.80 1002.83 1003.14 1005.29 1006.89 1008.25 1008.45 1008.98 1009.47 1009.35 1009.79 1010.27 1010.35 1010.33 1010.67 1010.83 1011.03 1011.30 1011.61 1011.85 1011.93 1011.97 1011.89 1011.91 1011.95 1012.03 1011.99 1012.14 1012.14 1012.06
1010.76 1011.25 1012.27 1012.40 1012.17 1011.02 1009.68 1008.60 1007.94 1007.07 1005.93 1004.92 1004.27 1003.73 1003.04 1002.21 1002.79 1003.03 1003.43 1003.77 1004.25 1004.40 1004.55 1006.50 1007.88 1008.47 1008.60 1009.29 1009.24 1009.55 1009.87 1010.25 1010.31 1010.59 1010.87 1011.05 1011.25 1011.58 1011.81 1012.04 1012.05 1012.07 1011.99 1012.11 1012.27 1012.37 1012.35 1012.34 1012.25
1011.14 1012.12 1012.85 1012.74 1011.83 1010.51 1009.24 1008.38 1007.83 1007.27 1006.55 1005.55 1004.69 1003.66 1002.98 1002.29 1001.86 1002.54 1003.56 1004.23 1004.91 1004.83 1005.54 1006.41 1007.75 1008.11 1008.43 1008.82 1009.19 1009.59 1009.72 1010.08 1010.35 1010.64 1010.75 1011.02 1011.29 1011.62 1011.71 1011.97 1012.15 1012.16 1012.27 1012.30 1012.43 1012.48 1012.54 1012.42 1012.19
1012.05 1012.90 1013.47 1012.99 1011.73 1010.28 1009.11 1008.19 1007.76 1007.00 1006.13 1005.44 1004.91 1004.03 1002.93 1002.36 1002.37 1002.32 1003.47 1004.72 1005.65 1005.91 1005.84 1006.75 1007.67 1007.80 1008.35 1008.72 1009.17 1009.47 1009.64 1010.09 1010.39 1010.71 1010.96 1011.10 1011.35 1011.58 1011.72 1011.88 1012.04 1012.29 1012.43 1012.51 1012.58 1012.59 1012.44 1012.37 1012.29
1012.35 1013.23 1013.31 1012.65 1011.73 1010.45 1008.98 1007.98 1007.54 1006.98 1006.31 1005.31 1004.87 1004.09 1003.47 1003.32 1003.12 1003.32 1003.69 1004.68 1005.39 1006.10 1006.59 1007.03 1007.74 1008.07 1008.17 1008.69 1009.17 1009.42 1009.60 1009.99 1010.39 1010.68 1010.96 1011.22 1011.43 1011.59 1011.77 1011.93 1012.19 1012.36 1012.45 1012.50 1012.61 1012.53 1012.51 1012.50 1012.48
1012.05 1012.84 1013.06 1012.26 1011.39 1010.51 1008.95 1008.27 1007.48 1007.06 1006.23 1005.36 1004.41 1003.75 1003.31 1003.26 1003.45 1003.96 1004.75 1005.53 1005.85 1006.29 1006.49 1006.98 1007.84 1008.20 1008.50 1008.75 1009.29 1009.46 1009.66 1010.03 1010.42 1010.77 1011.05 1011.25 1011.43 1011.61 1011.85 1012.05 1012.39 1012.52 1012.57 1012.52 1012.56 1012.57 1012.47 1012.44 1012.30
1011.67 1012.87 1012.99 1012.20 1011.24 1010.15 1008.93 1008.60 1007.41 1006.82 1006.39 1005.65 1004.81 1004.04 1002.49 1003.08 1003.75 1004.25 1005.35 1006.31 1006.12 1006.90 1006.98 1007.06 1007.54 1007.96 1008.35 1008.92 1009.29 1009.57 1009.83 1010.11 1010.49 1010.90 1011.04 1011.30 1011.54 1011.73 1011.94 1012.32 1012.50 1012.65 1012.57 1012.79 1012.71 1012.49 1012.21 1012.20 1012.15
1011.97 1012.77 1012.42 1011.40 1010.71 1009.87 1008.42 1008.45 1007.37 1006.92 1006.48 1005.36 1004.52 1003.36 1002.01 1002.60 1003.51 1004.19 1004.99 1005.61 1005.89 1006.24 1006.97 1007.22 1007.40 1007.60 1008.00 1008.56 1009.25 1009.72 1009.97 1010.45 1010.68 1011.01 1011.20 1011.42 1011.66 1011.90 1012.20 1012.35 1012.59 1012.65 1012.68 1012.86 1012.59 1012.45 1012.17 1012.12 1012.10
1011.76 1011.97 1011.36 1010.61 1009.92 1009.53 1008.49 1007.85 1007.30 1006.58 1006.08 1005.55 1004.95 1004.62 1004.84 1005.34 1004.46 1003.73 1004.45 1004.73 1004.60 1005.73 1006.63 1007.21 1007.53 1007.79 1007.98 1008.45 1009.21 1009.71 1010.02 1010.44 1010.77 1011.04 1011.22 1011.55 1011.78 1012.07 1012.33 1012.42 1012.61 1012.70 1012.68 1012.86 1012.73 1012.59 1012.35 1012.29 1012.32
1011.88 1011.32 1010.92 1010.36 1009.71 1009.33 1008.57 1007.45 1006.56 1006.33 1005.60 1005.30 1004.85 1004.68 1004.98 1005.96 1006.23 1006.11 1004.42 1005.22 1005.67 1005.57 1006.47 1006.96 1007.24 1007.73 1008.27 1008.44 1009.15 1009.45 1010.06 1010.51 1010.95 1011.17 1011.42 1011.69 1011.90 1012.19 1012.26 1012.47 1012.54 1012.61 1012.81 1012.80 1012.89 1012.72 1012.65 1012.51 1012.42
1011.69 1011.41 1010.90 1010.38 1009.95 1009.11 1008.13 1007.42 1006.67 1005.55 1005.15 1005.07 1004.98 1004.84 1004.84 1005.36 1006.27 1006.49 1006.57 1005.21 1006.06 1005.52 1006.08 1006.85 1007.09 1007.63 1008.17 1008.55 1008.99 1009.52 1010.02 1010.54 1010.83 1011.32 1011.52 1011.87 1012.10 1012.25 1012.23 1012.42 1012.49 1012.61 1012.75 1012.95 1012.94 1012.95 1012.92 1012.80 1012.75
1011.71 1011.36 1010.85 1010.21 1009.73 1008.82 1008.15 1006.82 1006.38 1005.02 1004.82 1005.02 1004.95 1005.34 1005.47 1004.79 1005.23 1006.10 1006.81 1006.49 1005.73 1005.73 1005.91 1006.60 1007.22 1007.61 1007.93 1008.35 1009.08 1009.41 1009.82 1010.43 1011.01 1011.27 1011.40 1011.74 1012.01 1012.17 1012.32 1012.43 1012.55 1012.75 1012.73 1012.83 1012.98 1013.22 1013.21 1013.18 1013.05
1011.66 1011.37 1010.77 1010.19 1009.83 1009.24 1008.03 1006.14 1005.43 1005.27 1004.88 1005.35 1005.51 1005.58 1005.25 1004.87 1004.65 1005.24 1006.00 1006.69 1006.17 1004.60 1005.42 1006.33 1007.00 1007.49 1007.86 1008.23 1008.81 1009.34 1009.59 1010.33 1011.01 1011.12 1011.27 1011.55 1011.93 1011.89 1012.19 1012.49 1012.68 1012.79 1012.82 1012.92 1012.98 1013.23 1013.29 1013.53 1013.39
1012.04 1011.91 1011.59 1010.50 1009.93 1009.39 1008.81 1006.67 1005.37 1005.78 1005.29 1005.48 1005.45 1005.46 1005.01 1004.64 1004.31 1004.05 1005.16 1005.84 1006.72 1006.35 1004.83 1005.94 1006.50 1007.33 1007.84 1008.20 1008.69 1009.11 1009.42 1009.99 1010.65 1010.84 1011.03 1011.30 1011.60 1011.80 1012.15 1012.52 1012.77 1012.87 1012.97 1013.14 1013.04 1013.35 1013.79 1013.95 1013.83
1012.85 1012.61 1011.77 1010.90 1009.98 1009.85 1009.54 1007.75 1004.94 1006.01 1005.61 1005.29 1005.38 1005.32 1005.14 1004.74 1004.64 1003.76 1004.53 1005.93 1006.03 1006.02 1005.89 1005.97 1006.36 1006.99 1007.58 1008.00 1008.57 1008.88 1009.34 1009.89 1010.09 1010.46 1010.69 1011.05 1011.27 1011.66 1011.83 1012.60 1012.86 1013.03 1013.05 1013.19 1013.34 1013.78 1013.94 1014.39 1014.43
1013.09 1012.60 1011.73 1011.11 1010.28 1009.70 1009.50 1007.72 1006.10 1006.19 1005.57 1004.74 1005.14 1004.93 1004.94 1004.50 1004.15 1004.09 1005.57 1006.23 1006.10 1006.42 1006.04 1005.92 1006.58 1006.87 1007.27 1007.95 1008.46 1008.92 1009.27 1009.61 1009.73 1010.15 1010.37 1010.83 1011.13 1011.39 1011.86 1012.45 1012.95 1013.07 1013.23 1013.35 1013.66 1014.10 1014.47 1014.75 1014.87
1012.59 1012.19 1011.45 1010.56 1009.95 1009.88 1009.00 1007.97 1006.93 1005.98 1005.30 1004.10 1004.74 1004.64 1004.64 1004.46 1003.89 1003.82 1004.57 1005.69 1005.54 1006.46 1006.24 1005.94 1006.83 1006.74 1007.22 1007.94 1008.43 1008.88 1009.34 1009.81 1010.06 1010.23 1010.37 1010.87 1011.18 1011.73 1012.06 1012.73 1013.05 1013.37 1013.50 1013.76 1014.13 1014.48 1015.02 1015.39 1015.52
1011.76 1011.51 1010.92 1010.20 1009.54 1009.77 1009.17 1007.95 1006.76 1005.63 1004.95 1003.64 1004.25 1004.13 1004.01 1003.77 1003.88 1004.16 1004.05 1004.57 1005.41 1005.87 1005.89 1005.73 1006.24 1006.55 1007.01 1007.39 1007.77 1008.39 1009.01 1009.69 1010.03 1010.29 1010.73 1010.99 1011.40 1011.98 1012.27 1012.68 1013.29 1013.42 1013.80 1014.26 1014.36 1014.57 1015.42 1015.98 1015.97
1010.72 1010.61 1010.24 1009.79 1009.11 1008.97 1008.55 1007.36 1006.27 1004.69 1004.46 1003.07 1003.59 1003.40 1003.11 1003.06 1003.26 1003.69 1004.21 1004.25 1005.07 1005.61 1005.38 1005.60 1005.84 1006.01 1006.56 1007.15 1007.66 1008.37 1009.14 1009.83 1010.52 1011.01 1011.32 1011.58 1011.82 1012.29 1012.54 1012.99 1013.28 1013.67 1014.28 1014.68 1014.87 1014.97 1015.21 1016.09 1016.53
1009.88 1009.71 1009.43 1009.40 1009.35 1009.15 1008.50 1007.54 1005.98 1005.51 1003.93 1002.72 1002.81 1003.04 1002.54 1002.42 1002.43 1002.61 1003.48 1004.01 1003.96 1004.81 1005.49 1005.55 1005.65 1005.58 1006.23 1006.93 1007.40 1007.64 1008.49 1009.64 1010.53 1011.04 1011.59 1012.11 1012.63 1012.73 1012.93 1013.41 1013.64 1014.15 1014.64 1015.00 1015.15 1015.29 1015.39 1015.85 1016.70
1009.04 1009.01 1009.07 1009.21 1009.36 1009.25 1009.11 1008.87 1004.44 1005.36 1003.89 1002.52 1002.03 1002.25 1001.62 1001.73 1001.34 1001.77 1002.71 1003.20 1002.84 1003.69 1004.47 1004.96 1005.59 1005.26 1006.24 1007.33 1007.41 1007.95 1008.81 1009.44 1010.57 1011.30 1011.99 1012.58 1013.10 1013.18 1013.49 1013.79 1014.11 1014.66 1014.85 1015.21 1015.21 1015.61 1015.79 1016.05 1016.54
1008.85 1008.88 1009.10 1009.60 1010.15 1009.86 1009.24 1008.63 1003.87 1004.39 1003.27 1002.23 1001.42 1001.81 1000.95 1000.56 1000.85 1000.67 1000.95 1002.17 1002.81 1003.17 1004.49 1004.84 1005.49 1005.95 1006.08 1007.51 1008.03 1007.99 1008.35 1009.41 1010.58 1011.50 1012.23 1013.03 1013.58 1013.87 1013.99 1014.07 1014.60 1015.08 1015.13 1015.39 1015.60 1015.99 1016.14 1016.35 1016.79
1009.01 1009.49 1010.21 1010.85 1011.02 1010.15 1008.91 1007.91 1005.40 1004.17 1003.46 1002.49 1001.09 1001.30 1000.80 1000.01 1000.13 1000.31 1000.91 1001.67 1002.39 1003.23 1004.27 1004.53 1005.08 1005.22 1006.53 1008.77 1008.12 1009.19 1008.33 1008.65 1010.22 1011.31 1012.15 1013.05 1013.69 1014.26 1014.52 1014.73 1015.41 1015.57 1015.52 1015.73 1015.89 1016.14 1016.36 1016.91 1017.13
1009.36 1010.07 1010.74 1010.93 1011.08 1010.67 1009.17 1007.16 1004.81 1003.51 1003.01 1002.49 1001.44 1001.32 1000.46 1000.05 999.25 999.68 999.84 1000.57 1001.43 1002.56 1003.71 1004.41 1004.58 1004.70 1005.04 1007.35 1008.61 1009.07 1008.55 1009.08 1010.19 1010.95 1011.85 1012.79 1013.51 1014.05 1014.66 1015.13 1015.61 1015.75 1015.80 1015.87 1016.28 1016.50 1016.87 1017.33 1017.55
1009.01 1009.63 1010.17 1010.94 1011.10 1010.87 1009.20 1006.69 1004.41 1003.11 1002.91 1002.25 1001.53 1001.11 1001.05 1000.19 999.34 999.12 999.24 999.32 1000.88 1002.11 1003.01 1003.42 1004.08 1004.45 1005.13 1006.92 1007.70 1008.61 1008.72 1008.96 1010.09 1011.13 1011.93 1012.79 1013.67 1014.29 1014.60 1015.46 1016.13 1016.23 1016.20 1016.14 1016.57 1016.82 1017.32 1017.67 1018.25
1008.37 1009.17 1010.44 1011.05 1011.36 1010.57 1008.61 1007.01 1004.93 1004.01 1003.41 1002.67 1001.87 1001.28 1000.56 1000.02 999.38 999.11 998.86 998.82 999.76 1000.87 1001.72 1002.79 1003.15 1003.27 1004.11 1005.38 1006.72 1007.41 1008.07 1008.64 1010.01 1010.75 1011.85 1012.90 1013.77 1014.21 1015.14 1015.76 1016.25 1016.54 1016.65 1016.49 1016.88 1017.41 1017.89 1018.03 1018.88
1008.66 1009.05 1009.94 1010.45 1010.39 1009.87 1008.55 1006.40 1004.67 1004.18 1003.62 1003.17 1002.37 1001.57 1000.43 999.77 999.24 998.46 998.39 998.61 999.09 1000.24 1000.69 1002.02 1002.78 1002.88 1004.03 1005.00 1005.95 1006.88 1008.13 1008.97 1010.07 1010.96 1012.13 1013.26 1013.73 1014.29 1015.36 1015.87 1016.56 1016.68 1016.86 1016.85 1017.39 1017.65 1018.60 1018.71 1019.20
1008.32 1008.66 1009.19 1009.87 1010.07 1009.78 1008.29 1005.93 1004.53 1003.98 1003.53 1003.28 1002.47 1001.67 1000.38 999.76 998.73 997.73 997.54 998.16 998.89 999.91 1000.41 1001.83 1002.27 1003.09 1004.12 1004.49 1005.65 1007.24 1008.35 1009.13 1010.27 1011.62 1012.49 1013.22 1014.02 1014.67 1015.50 1015.90 1016.67 1017.05 1016.93 1017.10 1017.67 1018.28 1018.98 1018.90 1019.84
Thickness
5759 5763 5765 5757 5724 5713 5723 5752 5782 5787 5794 5806 5802 5791 5791 5795 5781 5766 5840 5841 5845 5843 5830 5826 5815 5805 5804 5811 5811 5813 5816 5814 5815 5815 5814 5813 5811 5810 5808 5807 5805 5805 5804 5803 5802 5800 5797 5795 5793
5754 5758 5753 5734 5705 5700 5721 5760 5778 5781 5794 5798 5803 5802 5792 5791 5809 5814 5826 5837 5845 5852 5836 5826 5817 5813 5807 5809 5813 5810 5811 5813 5814 5814 5814 5813 5810 5808 5807 5805 5804 5803 5801 5800 5800 5799 5797 5795 5792
5749 5749 5732 5717 5696 5708 5728 5761 5770 5783 5789 5795 5790 5808 5800 5804 5817 5820 5839 5846 5856 5856 5839 5829 5816 5815 5812 5809 5814 5812 5809 5810 5814 5813 5814 5813 5811 5808 5805 5803 5802 5802 5801 5799 5798 5797 5794 5791 5789
5738 5732 5719 5701 5706 5724 5745 5760 5760 5763 5776 5786 5790 5783 5815 5834 5827 5836 5839 5847 5843 5845 5847 5831 5816 5812 5815 5811 5814 5813 5812 5811 5813 5813 5812 5812 5811 5809 5806 5802 5800 5799 5799 5797 5795 5792 5790 5788 5786
5727 5712 5694 5694 5707 5729 5747 5755 5755 5753 5759 5764 5775 5777 5798 5828 5842 5842 5834 5838 5832 5839 5836 5830 5817 5815 5815 5814 5814 5811 5813 5812 5811 5811 5812 5812 5811 5808 5806 5802 5799 5797 5795 5794 5792 5791 5788 5786 5785
5702 5695 5678 5680 5704 5726 5735 5748 5747 5752 5757 5755 5761 5775 5796 5827 5829 5838 5834 5827 5822 5820 5830 5825 5818 5818 5813 5814 5812 5812 5813 5811 5810 5810 5809 5810 5809 5807 5805 5803 5800 5796 5794 5792 5791 5789 5787 5785 5782
5685 5672 5668 5681 5694 5709 5728 5743 5742 5743 5747 5756 5763 5766 5792 5804 5817 5824 5828 5829 5823 5821 5820 5818 5813 5814 5815 5812 5808 5810 5813 5811 5809 5809 5808 5807 5806 5805 5803 5801 5797 5795 5793 5791 5790 5788 5785 5782 5778
5673 5661 5664 5672 5683 5688 5719 5724 5737 5738 5742 5768 5770 5761 5774 5802 5812 5814 5813 5814 5817 5816 5817 5816 5810 5810 5812 5810 5807 5808 5809 5809 5808 5807 5806 5805 5804 5803 5801 5799 5795 5793 5791 5791 5788 5786 5783 5780 5777
5670 5641 5637 5653 5671 5683 5706 5701 5729 5739 5738 5752 5756 5767 5797 5803 5804 5801 5800 5798 5807 5806 5808 5813 5810 5809 5810 5807 5804 5805 5805 5806 5805 5803 5804 5802 5801 5800 5798 5794 5792 5790 5790 5787 5785 5783 5783 5779 5776
5645 5623 5634 5651 5662 5668 5697 5690 5710 5717 5724 5740 5750 5771 5799 5801 5800 5796 5797 5797 5801 5804 5803 5806 5809 5811 5811 5808 5803 5801 5802 5801 5802 5800 5801 5800 5799 5797 5795 5792 5789 5789 5788 5784 5784 5781 5780 5776 5774
5640 5629 5641 5653 5659 5662 5684 5685 5702 5706 5711 5730 5735 5748 5755 5761 5783 5797 5799 5803 5809 5804 5802 5803 5805 5807 5809 5807 5802 5801 5801 5799 5799 5798 5798 5796 5795 5794 5793 5790 5788 5788 5786 5782 5781 5778 5776 5773 5768
5627 5638 5641 5647 5655 5655 5667 5684 5697 5701 5716 5730 5737 5748 5747 5746 5755 5762 5791 5792 5795 5801 5798 5800 5804 5802 5800 5801 5800 5800 5799 5796 5794 5794 5793 5793 5793 5791 5791 5789 5788 5787 5783 5780 5777 5775 5770 5767 5764
5623 5630 5634 5640 5641 5648 5660 5667 5678 5701 5721 5727 5726 5737 5742 5740 5745 5751 5759 5784 5784 5795 5797 5795 5800 5799 5798 5798 5799 5798 5796 5792 5791 5788 5788 5787 5787 5788 5788 5787 5787 5784 5781 5776 5773 5769 5764 5762 5760
5620 5623 5627 5633 5634 5642 5645 5663 5673 5703 5716 5717 5716 5715 5725 5740 5746 5745 5745 5756 5777 5786 5791 5791 5791 5793 5797 5797 5794 5795 5792 5789 5785 5784 5784 5783 5783 5784 5785 5785 5784 5780 5778 5774 5770 5763 5759 5756 5756
5618 5613 5619 5628 5629 5630 5644 5663 5673 5687 5697 5699 5701 5698 5714 5733 5743 5745 5748 5748 5762 5791 5788 5786 5786 5789 5791 5792 5792 5791 5791 5785 5782 5780 5781 5780 5780 5783 5782 5780 5778 5775 5773 5771 5768 5760 5754 5751 5751
5601 5602 5593 5611 5620 5625 5630 5638 5675 5667 5677 5684 5690 5693 5704 5717 5733 5747 5741 5749 5739 5759 5786 5784 5786 5784 5784 5787 5788 5787 5787 5784 5778 5778 5779 5779 5780 5780 5780 5776 5774 5771 5769 5766 5766 5758 5748 5744 5742
5581 5580 5588 5599 5612 5607 5607 5623 5672 5660 5663 5673 5678 5685 5692 5704 5717 5746 5745 5735 5736 5750 5765 5774 5780 5780 5781 5782 5782 5783 5782 5780 5779 5778 5780 5779 5780 5779 5779 5773 5771 5767 5765 5763 5759 5749 5744 5739 5734
5571 5572 5580 5583 5594 5598 5596 5617 5647 5650 5655 5670 5669 5679 5683 5692 5712 5735 5729 5724 5728 5737 5756 5767 5768 5774 5777 5775 5774 5775 5777 5779 5780 5780 5781 5778 5777 5777 5775 5771 5766 5763 5761 5757 5752 5743 5737 5733 5728
5571 5570 5573 5586 5589 5587 5594 5604 5622 5639 5648 5666 5663 5673 5678 5686 5703 5726 5728 5723 5727 5731 5748 5760 5757 5766 5770 5768 5768 5769 5768 5771 5773 5776 5776 5773 5772 5770 5769 5764 5762 5759 5755 5751 5745 5739 5731 5726 5723
5566 5560 5564 5574 5581 5569 5578 5590 5610 5630 5640 5660 5657 5666 5677 5687 5692 5706 5725 5731 5725 5731 5745 5756 5757 5760 5764 5765 5768 5769 5768 5768 5770 5771 5768 5769 5768 5765 5764 5762 5757 5755 5750 5744 5741 5736 5725 5720 5717
5562 5559 5562 5564 5577 5575 5574 5584 5598 5623 5624 5650 5651 5661 5678 5685 5690 5698 5705 5716 5724 5722 5736 5749 5756 5760 5760 5761 5763 5765 5763 5761 5759 5759 5759 5761 5760 5758 5757 5754 5753 5749 5743 5738 5734 5730 5726 5717 5711
5551 5565 5566 5563 5559 5550 5567 5558 5584 5584 5605 5631 5646 5651 5671 5683 5692 5702 5702 5707 5728 5724 5727 5738 5750 5759 5759 5759 5759 5765 5762 5757 5755 5754 5753 5751 5749 5751 5751 5747 5745 5741 5737 5731 5728 5724 5722 5716 5706
5560 5567 5562 5561 5554 5552 5555 5531 5592 5577 5593 5624 5643 5648 5668 5677 5692 5699 5699 5708 5726 5734 5730 5738 5746 5752 5749 5747 5751 5753 5751 5753 5749 5747 5745 5744 5742 5744 5743 5741 5737 5733 5731 5727 5726 5720 5717 5711 5705
5567 5559 5555 5544 5538 5533 5548 5543 5587 5582 5601 5619 5639 5645 5661 5679 5686 5701 5706 5706 5717 5723 5718 5735 5737 5739 5744 5736 5731 5744 5750 5747 5744 5742 5739 5736 5734 5735 5737 5735 5731 5727 5726 5723 5719 5714 5712 5707 5701
5555 5540 5526 5521 5510 5529 5546 5545 5565 5581 5591 5605 5623 5628 5641 5667 5678 5691 5695 5699 5708 5711 5715 5730 5734 5739 5730 5708 5716 5722 5743 5748 5738 5737 5734 5731 5729 5728 5728 5727 5721 5719 5718 5716 5714 5711 5708 5700 5695
5545 5534 5522 5515 5506 5521 5546 5542 5568 5591 5594 5602 5618 5621 5634 5651 5677 5686 5700 5703 5708 5712 5718 5721 5727 5730 5729 5706 5704 5718 5733 5736 5735 5736 5734 5729 5727 5727 5723 5719 5715 5714 5712 5711 5707 5705 5700 5694 5689
5548 5533 5536 5526 5526 5515 5531 5550 5575 5592 5594 5603 5614 5621 5625 5641 5670 5684 5695 5710 5709 5712 5717 5722 5722 5722 5723 5714 5712 5722 5727 5732 5730 5728 5728 5726 5722 5719 5719 5712 5707 5706 5705 5706 5703 5700 5695 5689 5681
5551 5544 5522 5511 5513 5504 5534 5547 5558 5573 5582 5595 5605 5616 5626 5639 5654 5674 5686 5704 5711 5716 5720 5720 5724 5731 5727 5717 5719 5724 5731 5734 5726 5726 5725 5721 5716 5715 5708 5705 5702 5700 5698 5701 5697 5692 5686 5683 5673
5543 5535 5526 5516 5523 5515 5526 5549 5573 5572 5575 5582 5595 5607 5620 5633 5649 5672 5683 5695 5708 5714 5722 5722 5724 5734 5727 5724 5721 5727 5725 5722 5720 5722 5719 5713 5712 5709 5703 5701 5695 5694 5693 5694 5689 5687 5676 5674 5666
5551 5542 5530 5518 5525 5523 5531 5549 5571 5572 5577 5580 5588 5601 5616 5625 5647 5668 5686 5692 5699 5707 5721 5720 5726 5726 5725 5735 5726 5719 5715 5717 5715 5711 5710 5707 5704 5702 5698 5695 5690 5687 5690 5688 5683 5677 5670 5670 5658